Location: Franzen
(48.6167°N, 15.3833°E)
Time: 05:08:28
(UTC+00:00)

Altair - Pass Details

Date: 04 August 2021
Orbit: 1501 x 1682 km, 47.2° (Epoch: 21 September)

Event Time Altitude Azimuth Distance (km) Brightness Sun altitude
Exits shadow 02:45:38 - 268° (W) 4,711 9.6 -7.9°
Reaches altitude 10° 02:48:42 10° 268° (W) 3,712 9.0 -7.5°
Maximum altitude 02:58:02 83° 182° (S) 1,522 7.5 -6.3°
Drops below altitude 10° 03:07:14 10° 96° (E) 3,653 10.3 -5.0°
Sets 03:10:14 0° 96° (E) 4,637 10.9 -4.6°
